[[{"header":{"parameterUnit":"m.s-1","parameterCategory":1,"la1":30.2991,"la2":30.254,"lo1":-89.0895,"lo2":-89.0444,"dy":0.0017,"dx":0.0017,"nx":28,"ny":28,"refTime":"2023-07-19T03:00:00:Z","depth":0,"parameterNumber":2,"parameterNumberName":"U-component_of_WINDS"},"data":[0,0,0,0,0,0,0,0,0,0,0,0,0,0,0,0,0,0,0,0,0,0,0,0,0,0,0,0,0,0,0,0,0,0,0,0,0,0,0,0,0,0,0,0,0,0,0,0,0,0,0,0,0,0,0,0,0,0,1.2939,1.2939,0,1.295,1.295,1.2951,1.2892,1.2891,1.2889,1.2887,1.2904,1.2906,1.2908,0,0,0,0,0,0,0,0,0,0,0,0,0,1.2869,1.2871,1.2939,1.2939,1.2939,1.295,1.295,1.2951,1.2893,1.2891,1.2889,1.2887,1.2903,1.2905,1.2908,0,0,0,0,0,0,0,0,0,0,0,0,0,1.2892,1.2872,1.2939,1.2912,1.2909,1.295,1.295,1.2951,1.2893,1.2891,1.2888,1.2886,1.2902,1.2905,1.2908,1.2977,0,0,1.2917,1.2919,0,0,0,0,0,0,0,0,1.2891,1.2895,1.2916,1.2914,1.2911,1.2917,1.2932,1.296,1.2894,1.29,1.2887,1.2885,1.2911,1.2913,1.292,1.2978,1.2979,1.2918,1.2919,1.2921,1.2921,0,0,0,0,0,0,0,1.289,1.2894,1.2944,1.2916,1.2913,1.2899,1.29,1.2937,1.2919,1.2899,1.2895,1.2896,1.2909,1.2918,1.292,1.2979,1.2917,1.292,1.2922,1.2923,1.3091,1.3094,0,0,0,0,0,0,1.2891,1.2893,1.2943,1.2944,1.2894,1.2903,1.2903,1.2918,1.2919,1.2916,1.2899,1.2894,1.2914,1.2917,1.2921,1.3,1.2921,1.2923,1.2925,1.3089,1.3092,1.3095,0,0,0,0,0,0,1.289,1.2896,1.2943,1.2917,1.2922,1.2907,1.2924,1.292,1.2928,1.2918,1.2915,1.2911,1.2912,1.2917,1.2963,1.3,1.2925,1.2928,1.3085,1.309,1.3093,1.3161,0,0,0,0,0,0,1.2888,1.2896,1.2922,1.2918,1.2924,1.2984,1.2926,1.2922,1.2933,1.2927,1.2929,1.2927,1.291,1.2959,1.2966,1.3003,1.293,1.3082,1.3087,1.3092,1.3156,1.3167,1.3177,0,0,0,0,0,1.2886,1.2942,1.2924,1.293,1.2956,1.2987,1.299,1.2968,1.2936,1.2962,1.2955,1.2927,1.2995,1.2964,1.2971,1.301,1.308,1.3086,1.3092,1.3151,1.3165,1.3177,0,0,0,0,0,0,1.2954,1.2942,1.2921,1.2977,1.2983,1.2977,1.3009,1.2984,1.3,1.2994,1.2967,1.2969,1.3019,1.3019,1.2985,1.3076,1.3032,1.304,1.3074,1.3087,1.3098,1.3097,1.2932,0,0,0,0,0,1.2974,1.2999,1.2988,1.3039,1.3043,1.3025,1.3038,1.302,1.3026,1.3029,1.3025,1.3033,1.3055,1.3071,1.3092,1.3155,1.3154,1.3185,1.3196,1.3204,1.3212,1.3243,1.3257,1.3114,1.3114,1.3114,0,0,1.3019,1.3016,1.3034,1.3053,1.3055,1.3082,1.3028,1.306,1.3079,1.3034,1.3077,1.3074,1.3081,1.3135,1.3159,1.3137,1.325,1.3212,1.3219,1.3222,1.3251,1.3264,1.3276,1.3118,1.3118,1.3117,0,0,1.3114,1.3114,1.3156,1.3158,1.3161,1.3149,1.3159,1.3155,1.3151,1.3193,1.3159,1.3182,1.3223,1.3228,1.3236,1.3329,1.3303,1.3336,1.3393,1.3424,1.3435,1.3445,1.3477,1.3489,1.3344,1.3344,1.3344,0,1.317,1.3208,1.3181,1.3213,1.3222,1.318,1.3221,1.3226,1.3237,1.3244,1.3218,1.3265,1.3267,1.3321,1.3343,1.3352,1.3362,1.3337,1.3435,1.3445,1.3454,1.3484,1.3497,1.3348,1.3347,1.3347,1.3347,0,1.3276,1.3303,1.3336,1.3344,1.3357,1.3394,1.3373,1.3389,1.3369,1.3359,1.3402,1.3401,1.342,1.3431,1.3414,1.3483,1.3468,1.3439,1.3395,1.3472,1.35,1.3512,1.3354,1.3352,1.3351,1.335,0,0,1.3417,1.3406,1.3419,1.3421,1.342,1.3441,1.3475,1.3491,1.3505,1.3513,1.3542,1.3575,1.3547,1.3556,1.3538,1.3565,1.3638,1.3533,1.3532,1.3552,1.3712,1.3734,1.3749,1.362,1.3622,1.3624,1.3712,0,1.3509,1.3566,1.3541,1.3602,1.3625,1.3583,1.3613,1.3616,1.3607,1.3626,1.3617,1.364,1.3602,1.3607,1.3632,1.3624,1.367,1.3617,1.3647,1.3648,1.3647,1.3763,1.3788,1.3871,1.3723,1.3724,1.3726,0,1.3625,1.3635,1.3697,1.3688,1.3697,1.3725,1.3736,1.3755,1.3757,1.3748,1.3756,1.3732,1.3765,1.3719,1.3765,1.3729,1.374,1.3737,1.374,1.3743,1.3692,1.3769,1.3897,1.3909,1.3743,1.3742,1.3741,0,1.3721,1.3749,1.3789,1.3793,1.3785,1.3804,1.3802,1.3801,1.3811,1.3821,1.3828,1.3843,1.3851,1.3863,1.3843,1.3811,1.3891,1.3844,1.3885,1.3886,1.3905,1.3904,1.4036,1.3911,1.3911,1.3911,1.391,0,1.3827,1.3866,1.3832,1.3857,1.3899,1.387,1.3913,1.3906,1.3905,1.3928,1.3893,1.3915,1.3887,1.3907,1.3891,1.3931,1.3935,1.3929,1.3925,1.3933,1.3933,1.394,1.3934,1.3914,1.3913,1.3913,1.3912,0,1.3942,1.392,1.3961,1.3948,1.3946,1.3978,1.3967,1.399,1.3977,1.4006,1.4011,1.3992,1.4013,1.3993,1.4015,1.4004,1.4056,1.4044,1.4056,1.4052,1.4094,1.4091,1.4235,1.4253,1.4116,1.4118,1.4119,0,1.4011,1.404,1.4029,1.4041,1.404,1.406,1.4069,1.4041,1.4052,1.4054,1.4076,1.4094,1.4106,1.4142,1.4131,1.4146,1.4133,1.4183,1.4136,1.4142,1.4134,1.4132,1.4135,1.4193,1.4195,1.4196,1.4197,0,1.4137,1.4123,1.4137,1.4147,1.4158,1.4165,1.417,1.4182,1.4152,1.4166,1.4186,1.4195,1.4215,1.4233,1.4244,1.4242,1.4215,1.4211,1.4222,1.4231,1.4236,1.4233,1.4082,1.4209,1.4208,1.4207,1.4206,1.4206,1.4231,1.4253,1.4248,1.4265,1.4264,1.4268,1.4288,1.4276,1.4291,1.4303,1.4285,1.431,1.4309,1.432,1.4321,1.434,1.432,1.4335,1.4339,1.4343,1.4349,1.4232,1.4343,1.4342,1.4342,1.4342,1.4341,0,1.4354,1.4347,1.4362,1.4368,1.438,1.435,1.4353,1.4366,1.4387,1.4387,1.4399,1.4421,1.4437,1.4426,1.4439,1.4457,1.4445,1.4461,1.446,1.446,1.4367,1.4357,1.4471,1.4471,1.4471,1.4471,1.4471,1.4471,1.4419,1.4456,1.4442,1.4477,1.447,1.4492,1.4496,1.4499,1.4499,1.4524,1.4537,1.4528,1.4523,1.4536,1.455,1.4546,1.4553,1.4574,1.4566,1.448,1.4467,1.4455,1.4445,1.4576,1.4576,1.4657,1.4658,1.4659]},{"header":{"parameterUnit":"m.s-1","parameterCategory":1,"la1":30.2991,"la2":30.254,"lo1":-89.0895,"lo2":-89.0444,"dy":0.0017,"dx":0.0017,"nx":28,"ny":28,"refTime":"2023-07-19T03:00:00:Z","depth":0,"parameterNumber":3,"parameterNumberName":"V-component_of_WINDS"},"data":[0,0,0,0,0,0,0,0,0,0,0,0,0,0,0,0,0,0,0,0,0,0,0,0,0,0,0,0,0,0,0,0,0,0,0,0,0,0,0,0,0,0,0,0,0,0,0,0,0,0,0,0,0,0,0,0,0,0,6.3338,6.3339,0,6.3413,6.3414,6.3415,6.3357,6.3355,6.3353,6.335,6.3419,6.3423,6.3427,0,0,0,0,0,0,0,0,0,0,0,0,0,6.3139,6.3143,6.3338,6.3339,6.334,6.3413,6.3414,6.3415,6.3358,6.3355,6.3352,6.3349,6.3417,6.3422,6.3427,0,0,0,0,0,0,0,0,0,0,0,0,0,6.322,6.3144,6.3338,6.3321,6.332,6.3413,6.3414,6.3415,6.3359,6.3355,6.3351,6.3348,6.3416,6.3422,6.3428,6.3539,0,0,6.3447,6.3449,0,0,0,0,0,0,0,0,6.3216,6.3228,6.3322,6.3322,6.3321,6.3372,6.3369,6.3457,6.3359,6.3344,6.335,6.3346,6.3406,6.3413,6.3434,6.3543,6.3546,6.3447,6.3451,6.3454,6.3455,0,0,0,0,0,0,0,6.321,6.3224,6.3368,6.3324,6.3323,6.3307,6.3314,6.3385,6.3394,6.3345,6.3341,6.3351,6.3405,6.3429,6.3436,6.3547,6.3447,6.3453,6.3456,6.3459,6.3749,6.3752,0,0,0,0,0,0,6.3207,6.322,6.3365,6.337,6.3259,6.3313,6.3322,6.336,6.3393,6.3395,6.3354,6.3348,6.342,6.3428,6.3438,6.3569,6.3454,6.3459,6.3463,6.3745,6.375,6.3754,0,0,0,0,0,0,6.3203,6.3221,6.3362,6.3294,6.3311,6.3321,6.3364,6.3363,6.3387,6.34,6.3401,6.3377,6.3417,6.3429,6.3515,6.3571,6.3462,6.3468,6.374,6.3746,6.3752,6.3835,0,0,0,0,0,0,6.3198,6.322,6.3264,6.3295,6.3315,6.3441,6.3367,6.3367,6.3398,6.3391,6.3422,6.3424,6.3415,6.3506,6.3521,6.3578,6.3473,6.3735,6.3743,6.375,6.3827,6.3843,6.3856,0,0,0,0,0,6.3191,6.3283,6.3267,6.3284,6.3371,6.3444,6.3455,6.3445,6.3403,6.3446,6.3455,6.3423,6.3563,6.3515,6.3532,6.3591,6.3731,6.3741,6.3749,6.382,6.3839,6.3856,0,0,0,0,0,0,6.3254,6.3286,6.3269,6.3374,6.3407,6.3434,6.3488,6.3466,6.351,6.3501,6.3485,6.3493,6.3583,6.3595,6.3542,6.37,6.364,6.3653,6.3688,6.3707,6.3721,6.3715,6.3478,0,0,0,0,0,6.3281,6.3341,6.3365,6.3455,6.3473,6.3478,6.351,6.35,6.3533,6.3545,6.356,6.3591,6.3641,6.3675,6.3723,6.3829,6.3834,6.3878,6.3892,6.3904,6.3915,6.3971,6.399,6.3783,6.3783,6.3783,0,0,6.3336,6.3361,6.3399,6.3469,6.3493,6.3552,6.349,6.3556,6.3599,6.3554,6.3637,6.3649,6.3682,6.3778,6.3821,6.3791,6.3973,6.3916,6.3925,6.3929,6.3982,6.4001,6.4019,6.379,6.3788,6.3788,0,0,6.3466,6.3492,6.357,6.3597,6.3636,6.3639,6.3658,6.3689,6.3696,6.3779,6.3747,6.3797,6.3885,6.391,6.3933,6.4075,6.4045,6.409,6.4166,6.4221,6.4237,6.4251,6.43,6.4318,6.4101,6.4101,6.4101,0,6.3528,6.362,6.3612,6.3681,6.3711,6.3677,6.3755,6.378,6.3831,6.3852,6.3819,6.3929,6.3949,6.405,6.4084,6.4106,6.4125,6.4086,6.4236,6.425,6.4263,6.4309,6.4328,6.4106,6.4106,6.4105,6.4105,0,6.3693,6.3757,6.3815,6.3869,6.3906,6.3978,6.398,6.4018,6.4006,6.4011,6.4095,6.4119,6.417,6.4194,6.4181,6.4293,6.4273,6.4239,6.4177,6.4288,6.4331,6.4349,6.4114,6.4112,6.411,6.4109,0,0,6.3863,6.3914,6.3935,6.3959,6.4,6.4047,6.4118,6.4171,6.4203,6.424,6.4297,6.4373,6.4342,6.4369,6.4359,6.4407,6.4516,6.4366,6.4367,6.4392,6.4638,6.4663,6.4683,6.4498,6.4501,6.4504,6.4635,0,6.3994,6.412,6.4115,6.4231,6.4289,6.4258,6.4319,6.4349,6.4357,6.4405,6.4412,6.4466,6.4421,6.4438,6.4484,6.4493,6.4564,6.4483,6.4548,6.455,6.4539,6.4706,6.4732,6.4855,6.4652,6.4655,6.4657,0,6.4163,6.4209,6.4331,6.4364,6.4388,6.4443,6.4491,6.4539,6.4572,6.4574,6.4606,6.4588,6.4657,6.4596,6.4689,6.4634,6.4661,6.4669,6.4673,6.4677,6.4609,6.4712,6.4894,6.4911,6.4683,6.4681,6.4679,0,6.4272,6.4364,6.4449,6.4471,6.4512,6.4551,6.4569,6.46,6.4632,6.4673,6.4693,6.4741,6.4767,6.4804,6.4799,6.4755,6.4893,6.4832,6.4894,6.4894,6.4922,6.492,6.5109,6.4943,6.4943,6.4943,6.4942,0,6.4417,6.4493,6.4499,6.4551,6.4634,6.4628,6.471,6.4724,6.4751,6.4803,6.4779,6.4828,6.482,6.4868,6.4864,6.4941,6.4953,6.4955,6.4953,6.4956,6.4956,6.4971,6.4962,6.4948,6.4947,6.4946,6.4945,0,6.4552,6.456,6.465,6.4683,6.4693,6.4753,6.4779,6.4827,6.4834,6.49,6.4915,6.4924,6.498,6.498,6.5043,6.504,6.5134,6.5123,6.5124,6.512,6.5182,6.5175,6.5385,6.5411,6.5231,6.5233,6.5234,0,6.4643,6.4701,6.4741,6.4776,6.4798,6.4854,6.4887,6.4883,6.4919,6.4962,6.5004,6.5058,6.5101,6.5192,6.5202,6.525,6.5238,6.5309,6.5245,6.5247,6.5237,6.5233,6.5238,6.532,6.5322,6.5324,6.5325,0,6.4803,6.4805,6.4856,6.4908,6.495,6.499,6.5027,6.5057,6.5057,6.5097,6.5156,6.519,6.5255,6.5308,6.5355,6.5371,6.5347,6.5346,6.5362,6.5365,6.5362,6.5363,6.5155,6.534,6.5339,6.5338,6.5337,6.5336,6.4917,6.4967,6.5004,6.5061,6.5089,6.5125,6.5172,6.5186,6.5236,6.529,6.5285,6.5349,6.538,6.5441,6.5461,6.551,6.5485,6.5509,6.5515,6.552,6.5527,6.5357,6.5518,6.5518,6.5518,6.5517,6.5517,0,6.5074,6.5097,6.515,6.5205,6.5249,6.5228,6.5268,6.5306,6.5364,6.5397,6.544,6.5507,6.5559,6.5575,6.5625,6.5661,6.5651,6.5673,6.5669,6.5673,6.5547,6.5527,6.568,6.568,6.568,6.568,6.568,6.568,6.5161,6.5244,6.525,6.5346,6.5367,6.5433,6.5458,6.549,6.5516,6.5592,6.5637,6.5648,6.5673,6.5725,6.5771,6.5774,6.5792,6.5819,6.5817,6.5699,6.5682,6.5666,6.5647,6.5823,6.5824,6.5939,6.594,6.5941]}]]